Tracking 34408 objects as of 13-Jun-2026
HD Live streaming from Space Station
objects crossing your sky now

STARLINK-35623

Track STARLINK-35623 now!
10-day predictions
STARLINK-35623 is classified as:


NORAD ID: 66138
Int'l Code: 2025-237AA
Perigee: 481.4 km
Apogee: 483.4 km
Inclination: 53.2 °
Period: 94.1 minutes
Semi major axis: 6853 km
RCS: Unknown
Launch date: October 22, 2025
Source: United States (US)
Launch site: AIR FORCE WESTERN TEST RANGE (AFWTR)
Your satellite tracking list
Your tracking list is empty




NASA's NSSDC Master Catalog

Two Line Element Set (TLE):
1 66138U 25237AA  26164.61600131  .00021590  00000-0  73923-3 0  9994
2 66138  53.1618 314.3087 0001441  84.0147 276.1018 15.30187654 37296
Source of the keplerian elements: AFSPC